Location: Bretagne
(43.8474°N, 0.4650°W)
Time: 07:00:34
(UTC+00:00)

SJ-6F - Pass Details

Date: 15 January 2026
Orbit: 541 x 571 km, 97.9° (Epoch: 10 February)

Event Time Altitude Azimuth Distance (km) Brightness Sun altitude
Rises 17:54:03 0° 164° (SSE) 2,763 7.9 -11.4°
Reaches altitude 10° 17:56:11 10° 163° (SSE) 1,869 7.0 -11.8°
Maximum altitude 18:00:14 84° 77° (ENE) 579 4.3 -12.5°
Drops below altitude 10° 18:04:18 10° 349° (NNW) 1,874 7.0 -13.2°
Sets 18:06:27 0° 348° (NNW) 2,772 7.9 -13.5°
